Home > Weather > Beirut > Past weeks

Flag for Lebanon Past Weather in Beirut, Lebanon — Yesterday and Last 2 Weeks

Now
73 °F

Passing clouds.


Feels Like: 76 °F
Forecast: 69 / 75 °F
Wind: 12 mph from Southwest

Location: Beirut Airport

Current Time: May 29, 2016 at 10:58:54 AM

Latest Report: May 29, 2016 at 10:00 AM


Visibility: 5 mi

Pressure: 29.98 "Hg

Humidity: 69%

Dew Point: 63 °F

Location of BeirutLocation

Past Weather in Beirut — Graph

°F

Beirut Temperature Yesterday

Maximum temperature yesterday: 77 °F (at 2:00 PM)
Minimum temperature yesterday: 66 °F (at 8:00 AM)
Average temperature yesterday: 72 °F

High & Low Weather Summary for the Past Weeks

 TemperatureHumidityPressure
High97 °F (May 16, 12:00 PM)88% (May 26, 8:00 PM)30.07 "Hg (May 26, 8:00 PM)
Low66 °F (May 20, 5:00 AM)20% (May 14, 5:00 PM)29.74 "Hg (May 26, 2:00 PM)
Average75 °F59%29.93 "Hg
* Reported May 14 9:00 AM — May 29 9:00 AM, Beirut, Weather by CustomWeather, © 2016

Note: Actual official high and low records may vary slightly from our data, if they occured in-between our weather recording intervals... More about our weather records

Advertising

Beirut Weather History for the Previous 24 Hours

Scroll right to see more
 ConditionsComfort  
Time TempWeatherWind HumidityBarometerVisibility
9:00 AM
Sun, May 29
73 °FPassing clouds.10 mph69%29.98 "Hg5 mi
8:00 AM72 °FPassing clouds.9 mph73%29.95 "Hg5 mi
7:00 AM70 °FPassing clouds.6 mph69%29.95 "Hg5 mi
6:00 AM68 °FPassing clouds.2 mph69%29.92 "Hg5 mi
5:00 AM70 °FPassing clouds.3 mph64%29.89 "Hg5 mi
4:00 AM70 °FPassing clouds.2 mph60%29.89 "Hg5 mi
3:00 AM70 °FPassing clouds.3 mph60%29.89 "Hg4 mi
2:00 AM70 °FPassing clouds.No wind60%29.89 "Hg5 mi
1:00 AM70 °FPassing clouds.5 mph60%29.89 "Hg4 mi
12:00 AM70 °FPassing clouds.7 mph60%29.92 "Hg4 mi
11:00 PM
Sat, May 28
70 °FPassing clouds.3 mph64%29.92 "Hg4 mi
10:00 PM72 °FPassing clouds.8 mph69%29.92 "Hg4 mi
9:00 PM72 °FPassing clouds.12 mph69%29.92 "Hg4 mi
8:00 PM72 °FPassing clouds.15 mph73%29.89 "Hg4 mi
7:00 PM73 °FPartly sunny.16 mph69%29.89 "Hg5 mi
6:00 PM73 °FPartly sunny.17 mph69%29.89 "Hg5 mi
5:00 PM75 °FPartly sunny.20 mph65%29.89 "Hg5 mi
4:00 PM75 °FPartly sunny.13 mph57%29.89 "Hg5 mi
3:00 PM70 °FThunderstorms. Partly sunny.21 mph78%29.89 "Hg4 mi
2:00 PM77 °FRain. Partly sunny.18 mph61%29.89 "HgN/A
1:00 PM75 °FPartly sunny.18 mph61%29.89 "HgN/A
12:00 PM75 °FPartly sunny.18 mph57%29.89 "HgN/A
11:00 AM73 °FPartly sunny.17 mph65%29.89 "HgN/A
10:00 AM73 °FPartly sunny.17 mph65%29.89 "HgN/A
Weather by CustomWeather, © 2016

See weather overviewHow to use our weather pages